Theta_e
325 324 323 327 335 336 336 333 329 332 333 331 330 331 331 333 340 352 339 339 339 340 336 337 336 335 335 335 334 332 332 334 331 330 329 329 330 330 329 328 328 328 328 328 327 328 326 326 327
325 325 326 332 336 338 336 331 331 334 334 332 332 333 331 338 339 338 340 338 339 340 339 337 336 335 334 333 333 333 333 332 330 329 329 328 328 329 330 327 329 327 327 328 327 327 326 326 327
325 326 330 336 338 339 337 331 328 334 333 334 335 333 335 339 337 338 339 338 339 339 340 337 336 334 333 334 334 333 332 331 330 328 328 328 328 329 328 327 327 327 326 328 326 326 326 326 322
325 329 329 334 337 336 335 331 329 334 333 333 334 336 335 336 337 340 339 337 338 339 339 336 335 333 333 334 334 333 332 331 331 329 328 328 327 328 328 326 326 326 326 326 325 326 325 320 317
326 329 334 336 336 334 332 331 329 330 331 333 334 334 338 337 338 339 338 337 338 338 339 335 334 332 332 333 334 333 333 332 330 330 328 327 326 327 327 325 326 326 325 325 326 325 321 318 318
328 329 335 337 335 333 331 329 329 330 330 332 332 331 339 337 339 339 338 338 337 337 338 334 334 333 332 331 333 333 333 331 329 329 329 327 326 326 326 325 325 325 326 326 326 323 319 319 318
329 332 333 332 333 332 330 327 327 329 331 331 331 330 338 337 339 339 338 338 337 336 336 336 334 334 333 333 332 333 333 331 329 327 327 325 325 325 325 324 324 325 325 325 324 322 320 319 318
326 328 330 329 331 332 325 325 326 327 331 332 332 332 335 337 339 338 338 338 337 335 336 335 333 334 334 333 331 332 333 331 330 327 324 324 325 325 325 324 325 325 326 322 320 320 320 319 319
326 328 328 328 329 328 323 324 326 326 327 331 332 332 334 338 337 338 338 337 337 336 336 335 335 334 334 334 330 329 333 332 329 326 324 323 324 324 324 324 325 325 324 321 320 319 319 319 319
328 329 328 325 325 325 323 322 321 326 327 328 330 332 337 337 336 337 336 336 337 335 334 334 334 332 332 333 332 328 332 333 329 327 325 323 326 325 323 325 325 324 322 320 319 319 319 320 322
328 329 326 325 325 324 325 324 322 323 326 326 328 332 335 336 336 337 336 335 336 335 333 332 332 331 331 330 330 332 332 332 331 330 328 325 326 326 325 326 324 322 321 320 319 319 319 322 323
329 327 327 327 326 326 325 325 326 323 321 325 324 326 333 334 334 335 335 335 335 335 334 332 330 330 330 330 330 331 333 333 332 329 328 327 325 325 325 324 320 319 319 319 321 322 322 323 322
328 328 327 325 325 327 326 326 326 324 323 321 322 323 329 334 335 335 336 335 334 335 335 333 331 330 330 329 329 332 331 331 331 329 329 328 325 324 322 324 324 322 322 320 323 323 323 323 323
327 326 326 325 325 325 325 324 323 324 323 320 320 321 324 331 334 335 335 335 335 334 335 334 332 331 331 329 329 329 331 331 330 329 329 328 327 324 323 323 324 323 322 321 322 322 323 323 322
326 327 326 325 325 325 323 324 324 321 321 323 321 318 321 324 332 334 335 335 334 333 333 334 333 333 332 330 330 329 328 329 330 330 329 328 327 327 324 322 322 323 322 321 321 322 323 323 323
327 327 330 326 324 323 322 325 322 319 320 322 322 322 319 320 325 330 333 335 334 334 333 333 334 334 333 332 331 330 330 329 329 328 328 328 328 327 325 322 322 321 322 321 321 322 323 323 323
327 329 326 326 323 324 324 325 323 320 321 321 321 322 322 321 322 326 329 332 333 334 334 334 334 333 333 332 332 332 331 330 330 329 328 328 328 327 325 322 321 321 320 320 320 322 323 323 323
328 327 325 324 323 323 323 324 322 321 320 319 319 320 321 322 323 324 327 329 332 333 333 334 333 333 333 333 332 333 332 331 330 330 329 328 327 327 326 323 323 321 321 320 320 322 323 324 324
323 322 323 321 322 323 322 322 320 319 318 317 318 318 319 320 322 324 324 327 329 331 333 334 334 333 333 333 332 333 333 332 330 330 329 328 327 326 326 324 325 324 324 321 321 322 322 323 324
324 324 324 321 321 322 321 322 320 318 318 317 318 318 318 318 317 319 322 324 327 328 331 333 334 334 333 333 333 332 332 332 331 330 330 329 329 327 326 325 325 325 325 324 323 323 323 323 324
323 325 322 323 321 321 321 322 320 319 318 317 317 318 318 318 318 316 316 319 324 328 329 330 332 333 334 333 333 333 333 333 332 331 331 330 330 329 328 326 325 325 325 325 324 324 323 323 323
324 321 321 322 323 324 321 322 320 318 317 317 316 316 315 315 316 316 317 318 319 325 326 327 328 330 332 333 334 334 334 333 332 331 331 331 330 329 329 328 326 325 325 325 325 324 323 323 323
321 319 321 322 323 323 322 321 319 318 317 317 316 315 315 315 316 317 316 319 319 319 319 324 326 328 329 331 333 334 334 333 332 331 330 330 330 330 329 329 327 326 325 325 325 325 324 323 322
320 322 322 322 323 326 322 321 319 317 317 317 316 316 316 315 315 314 317 317 317 316 318 318 318 322 326 328 330 332 334 333 332 331 331 331 331 331 330 329 328 327 326 325 325 325 324 323 323
321 323 326 327 326 326 320 322 320 317 316 316 316 315 315 313 314 315 312 313 313 313 313 313 316 319 319 322 326 329 332 333 332 332 331 331 330 331 331 330 329 328 327 326 326 325 325 324 323
322 323 324 327 326 320 316 318 317 316 315 315 315 315 314 313 311 310 311 311 311 312 312 310 311 314 317 318 321 326 328 331 333 332 332 330 330 330 330 330 330 329 328 327 326 326 326 325 324
320 323 321 322 314 317 317 317 315 313 313 313 314 313 311 310 311 310 310 311 311 311 311 310 309 309 312 315 318 320 325 328 330 331 332 331 331 331 330 330 330 329 328 327 327 326 326 326 325
317 317 320 321 324 320 315 314 313 314 314 313 312 311 312 312 312 310 309 311 312 312 312 311 310 309 309 310 314 318 320 324 327 329 330 331 331 330 330 331 330 329 328 327 327 327 326 326 325
320 322 320 320 320 320 316 313 314 314 313 312 313 312 309 308 308 308 308 310 310 311 311 311 310 309 308 308 311 314 317 321 324 326 328 329 329 330 330 331 330 329 328 327 327 327 326 325 325
317 318 319 320 319 316 317 316 313 312 312 312 311 309 308 308 308 307 307 309 309 309 309 310 310 310 309 308 308 316 314 317 323 325 326 327 328 328 329 330 330 330 328 327 326 326 325 324 324
Wind_Speed
20 17 14 7 2 2 5 5 5 4 3 3 7 6 4 10 4 3 12 9 16 16 14 14 14 14 13 12 10 10 10 12 12 10 10 11 13 12 12 12 12 13 13 14 15 15 15 13 13
21 16 7 3 2 5 5 7 11 10 6 5 0 4 2 5 7 4 10 12 15 12 15 13 15 14 13 12 12 12 12 14 13 11 10 11 12 12 13 12 12 12 13 13 13 13 12 11 11
22 11 2 2 3 3 3 8 8 7 5 4 1 0 4 4 9 12 10 17 15 14 15 12 15 14 14 14 14 12 12 13 13 11 10 10 12 11 13 11 12 11 12 12 12 11 11 10 10
10 4 3 2 8 4 3 6 6 7 5 2 5 2 4 7 6 7 15 17 15 13 13 11 14 13 14 14 14 13 11 13 12 11 10 10 11 11 12 11 11 11 11 11 10 10 10 10 9
10 3 4 5 7 6 4 4 6 4 1 8 3 1 3 6 10 13 16 17 15 13 11 13 13 13 13 13 13 13 11 12 12 12 12 10 10 11 11 10 11 11 9 9 9 9 8 8 8
3 1 4 5 7 3 5 10 7 6 5 7 1 5 5 13 12 13 15 15 14 13 10 10 12 12 13 13 13 13 13 11 11 12 12 12 11 11 11 10 10 10 9 8 7 7 6 6 7
4 4 6 11 7 8 4 5 4 6 7 4 5 4 4 9 13 13 13 12 13 13 10 10 12 12 12 12 12 13 12 12 11 10 12 13 12 11 11 10 10 10 9 9 9 6 4 4 4
3 3 6 8 5 6 4 2 4 4 4 1 3 2 4 11 13 15 13 13 11 14 10 11 11 12 13 12 12 13 13 13 11 9 11 13 14 13 13 11 10 10 9 9 8 7 5 4 3
3 3 4 8 9 6 6 5 5 2 4 0 6 3 7 20 14 13 12 13 14 14 13 13 15 10 12 11 13 14 14 15 13 10 10 11 11 13 13 12 12 12 11 9 8 6 5 4 3
3 4 8 8 4 6 9 4 9 2 4 5 5 11 16 15 14 13 13 14 15 14 14 14 14 12 14 13 11 15 17 17 14 12 12 10 11 10 12 13 14 14 12 10 9 6 5 3 1
3 8 11 12 7 8 6 7 4 7 5 5 1 8 13 16 12 12 13 14 17 15 15 15 15 15 14 14 11 15 19 19 14 12 10 12 13 14 14 14 16 15 13 11 9 9 7 4 3
11 10 9 10 5 3 6 7 5 7 9 4 3 4 13 11 12 14 15 15 16 16 16 16 16 16 16 16 14 18 17 20 18 15 13 12 15 17 19 15 15 16 14 13 9 8 5 7 10
14 8 15 9 6 1 8 8 8 9 9 9 4 1 5 9 15 19 19 19 17 19 18 18 18 17 17 18 18 17 19 21 18 19 17 17 18 17 16 17 13 13 14 14 15 13 12 12 9
5 5 11 11 6 5 9 9 8 8 7 6 7 7 8 9 16 18 21 20 21 20 20 20 20 20 19 20 19 21 18 19 21 21 22 22 20 19 19 19 19 18 18 16 16 14 13 11 10
2 8 10 8 7 8 6 9 10 12 12 10 8 9 9 10 18 20 22 23 23 22 23 19 23 23 22 22 22 20 22 21 22 22 22 23 23 20 20 21 21 21 19 17 16 15 14 13 12
4 8 10 9 12 7 7 12 11 12 12 10 12 11 9 11 13 17 20 23 23 23 25 24 22 25 27 25 24 23 23 23 23 25 24 24 25 25 22 22 22 21 19 19 18 18 17 17 16
8 7 12 12 14 5 9 6 8 7 3 9 9 9 8 9 14 22 19 21 24 27 26 28 27 27 27 29 27 26 25 25 25 24 26 26 27 27 26 26 25 22 22 21 21 20 19 19 18
9 13 12 14 2 3 9 12 9 11 8 8 8 9 9 8 6 17 23 23 23 26 27 27 29 30 29 28 28 26 28 27 26 27 27 27 28 29 29 27 27 24 24 25 24 23 22 22 19
14 14 11 9 3 2 6 11 10 12 10 9 8 9 9 9 9 16 14 24 27 26 27 29 30 32 32 32 31 29 31 32 31 29 28 28 29 30 31 31 27 27 27 27 26 25 24 22 21
17 17 18 10 7 2 7 14 13 15 14 11 11 11 11 10 11 17 20 24 31 31 31 32 33 34 37 33 35 32 31 30 34 33 32 31 32 32 32 34 33 31 30 29 28 27 25 25 21
18 17 14 13 7 2 5 15 13 14 21 22 21 18 13 13 12 9 13 20 28 31 32 32 31 30 30 31 27 26 25 27 27 31 36 40 38 36 36 36 36 34 32 33 33 31 30 24 25
17 10 9 10 3 6 3 10 8 8 14 14 6 7 9 9 9 8 11 17 12 27 31 32 33 34 32 31 30 29 29 28 34 33 35 34 40 41 39 40 39 39 37 35 35 35 35 31 23
16 5 8 12 10 4 12 5 8 3 10 10 10 9 8 8 5 4 7 9 8 7 7 18 32 31 32 31 34 33 32 30 28 30 29 35 35 41 42 42 42 41 39 39 38 36 37 35 28
2 7 7 5 4 8 23 8 21 12 12 12 8 5 1 8 8 8 10 7 7 10 12 15 18 21 27 30 35 36 34 32 27 29 28 30 33 36 42 42 43 43 41 39 41 40 38 38 34
7 8 4 6 6 11 10 10 18 10 9 4 5 6 5 7 6 5 6 8 10 11 11 13 14 21 25 27 34 35 36 34 33 32 29 28 29 30 36 39 39 41 44 40 39 39 39 38 37
12 13 5 5 5 6 7 9 8 2 3 2 1 4 6 8 8 6 6 9 13 14 14 14 15 18 19 23 29 34 36 34 34 33 31 29 31 32 33 35 40 41 40 39 36 36 39 38 39
2 10 5 1 1 2 5 6 5 8 6 3 2 7 9 8 6 6 8 14 15 17 17 16 17 18 19 21 24 29 32 34 33 34 32 33 33 33 33 35 37 41 41 40 38 35 35 36 37
6 9 4 2 5 3 4 5 4 6 9 8 9 9 6 4 1 3 4 9 15 15 21 15 16 19 20 20 21 23 28 30 35 34 34 34 33 34 33 33 36 38 38 39 39 34 36 35 35
6 4 7 6 3 1 1 4 4 7 14 10 8 5 6 7 6 6 8 18 21 24 26 27 24 20 22 20 20 20 24 26 29 32 35 35 35 33 32 34 35 34 36 37 38 35 35 35 35
5 4 8 3 4 2 3 5 6 10 9 9 7 6 5 6 5 4 11 19 21 25 28 31 30 28 23 22 22 21 21 23 24 28 29 29 30 32 34 32 34 36 35 34 35 33 34 34 32
Wind_Direction
346 342 322 289 319 186 273 62 49 83 97 22 15 12 351 48 14 92 132 112 132 140 144 145 144 145 140 137 127 116 107 107 105 105 104 105 108 104 102 103 104 106 97 96 96 94 90 86 85
337 340 301 269 251 305 45 16 49 47 67 60 108 315 298 96 79 118 124 150 142 136 138 148 148 149 145 142 135 116 110 109 106 105 107 107 110 116 107 102 104 108 101 102 100 96 89 86 83
324 286 287 335 255 283 36 62 53 79 38 338 77 303 355 73 86 149 147 150 146 140 148 156 152 152 148 145 139 124 113 113 113 112 110 111 118 123 113 109 113 111 106 105 101 95 92 88 85
315 246 240 241 274 299 12 41 60 140 158 139 328 134 106 48 118 135 147 151 148 149 154 165 156 156 153 150 148 138 125 120 122 124 120 116 119 129 117 125 118 117 113 110 108 103 95 87 81
315 274 265 247 261 266 107 244 117 330 258 142 177 75 89 93 115 129 152 155 151 150 152 166 163 163 159 155 157 151 140 135 132 133 129 123 123 135 132 131 128 131 125 121 117 110 101 86 79
304 255 285 269 289 33 11 54 38 303 279 100 180 250 86 125 142 146 158 163 159 159 152 165 171 174 166 161 162 161 157 148 141 145 141 140 135 143 142 144 142 142 138 140 134 129 112 94 80
285 291 286 307 314 329 317 45 30 345 312 165 94 314 114 134 146 149 166 165 169 162 168 176 185 181 177 170 169 171 170 162 156 156 155 152 149 153 157 160 153 153 152 170 164 161 145 120 96
299 290 281 289 278 287 67 24 91 291 2 81 79 320 99 147 155 155 168 176 182 174 182 175 187 196 193 185 182 180 180 179 170 168 168 161 162 167 166 167 169 167 172 174 169 170 171 162 133
287 267 255 265 303 355 118 0 114 108 289 35 134 51 90 131 143 157 173 186 191 181 184 188 187 187 197 209 197 189 190 187 182 177 182 179 178 177 178 174 184 186 198 187 186 182 186 191 171
239 256 254 271 18 355 344 21 320 304 240 236 183 115 127 136 152 170 183 192 195 184 194 198 191 192 193 199 206 199 192 194 193 191 190 181 187 181 191 193 200 206 206 200 201 201 204 205 148
244 245 274 291 39 35 330 312 294 322 271 301 13 162 149 148 170 189 196 204 209 201 196 202 202 199 199 197 212 189 197 197 202 207 209 174 199 197 204 213 208 210 209 211 216 218 217 194 252
263 270 282 290 58 32 293 324 307 277 264 313 32 54 163 152 179 201 204 206 214 220 206 203 207 206 198 201 199 197 200 197 203 209 215 207 206 212 212 225 215 210 212 210 222 231 226 230 220
258 252 281 291 320 293 280 282 265 284 295 292 255 40 220 169 188 202 210 209 214 226 213 211 206 208 206 202 201 205 206 210 210 214 216 214 214 222 213 214 226 217 219 219 221 225 230 232 227
273 301 265 266 249 267 268 265 286 261 278 250 253 220 225 189 194 199 205 204 209 220 224 210 214 209 210 211 208 208 207 214 216 220 218 215 218 218 218 216 216 217 218 223 226 226 231 238 228
281 291 275 258 246 240 299 276 248 246 249 256 246 218 238 201 198 205 206 206 206 220 223 222 212 210 210 215 215 215 217 214 213 214 217 222 220 219 223 221 221 220 220 222 224 226 227 230 231
260 245 264 247 244 210 135 263 297 285 217 238 253 246 221 203 202 213 219 209 207 214 218 216 216 213 215 210 217 217 220 221 222 220 219 220 225 220 222 222 224 225 222 222 221 223 227 228 228
226 248 240 247 243 211 175 266 297 334 259 234 266 278 245 232 197 199 213 218 211 212 215 213 212 214 220 223 212 218 220 223 224 224 222 223 223 226 219 222 222 222 220 219 222 223 225 227 229
229 229 235 256 197 194 273 260 261 271 252 259 267 277 283 283 275 201 200 213 220 217 216 217 212 216 217 227 225 222 220 223 230 227 225 225 225 228 225 223 223 219 219 219 219 221 224 229 230
265 270 263 266 276 210 236 266 272 281 275 267 257 238 248 265 266 271 236 213 214 219 220 218 212 213 211 215 217 220 220 220 224 226 230 225 224 226 227 225 224 221 221 220 221 225 226 228 229
247 256 263 278 121 131 282 274 276 282 281 266 260 258 253 252 252 246 246 224 207 216 221 223 220 214 213 212 214 215 218 219 220 222 227 230 226 224 225 225 224 222 222 222 222 223 223 230 224
244 241 253 269 291 244 295 275 265 252 248 253 247 246 249 253 257 255 252 250 207 210 219 226 232 226 222 218 218 217 223 226 223 222 226 228 225 223 223 225 225 224 222 222 223 223 222 221 221
242 230 254 269 315 264 215 287 225 297 292 286 279 236 225 249 254 245 244 262 252 219 227 230 235 232 230 227 221 215 214 215 219 223 222 222 223 226 227 226 225 226 223 222 225 227 224 220 216
254 225 228 247 254 267 253 272 261 288 272 269 267 231 244 251 251 51 36 38 12 338 290 245 235 234 233 228 227 224 225 228 225 226 227 224 224 227 230 229 227 226 223 224 223 222 221 222 219
266 254 261 255 228 237 241 198 277 256 253 252 250 175 155 68 56 46 16 5 349 338 311 280 267 252 242 236 233 230 227 229 228 230 229 226 220 224 228 228 228 227 224 223 224 225 224 223 222
235 182 226 205 187 235 173 193 237 296 288 292 274 280 45 73 71 45 36 7 352 355 339 317 293 267 254 250 242 237 235 232 232 232 230 229 226 224 225 222 221 225 228 226 223 222 221 221 220
211 223 213 226 189 224 139 224 229 95 236 194 2 42 65 61 69 47 0 337 342 346 342 329 315 292 277 256 250 244 239 238 237 238 234 233 232 232 231 227 224 224 227 228 226 223 225 223 223
185 207 254 160 310 88 197 243 282 248 265 34 357 63 77 66 37 3 354 345 339 333 327 330 325 310 297 281 269 255 246 237 237 240 240 238 240 239 238 233 232 229 228 231 227 225 232 229 226
178 151 205 247 138 204 229 222 227 161 130 89 84 95 101 110 158 318 327 312 317 318 330 316 331 320 307 295 279 275 258 250 241 240 241 240 243 242 242 239 234 231 229 230 229 226 229 233 233
186 183 207 182 211 297 81 249 94 83 125 122 119 116 51 30 38 9 3 10 4 357 353 346 332 328 324 310 296 280 269 262 254 246 244 244 243 244 243 242 239 233 229 231 230 227 231 231 230
283 222 196 190 225 275 101 268 86 117 119 123 110 80 23 32 32 10 24 16 11 358 353 349 341 333 325 320 306 295 282 273 265 255 253 253 250 247 246 245 241 235 236 233 231 229 237 237 235